Regional Weather Roundup
Issued by NWS

Home | Current Version | Previous Version | Text Only | Print | Product List | Glossary Off
Versions: 1 2 3 4 5 6 7 8 9 10 11 12 13 14 15 16 17 18 19 20 21 22 23 24 25 26 27 28 29 30 31 32 33 34 35 36 37 38 39 40 41 42 43 44 45 46 47 48 49 50

000
ASUS43 KTOP 290308
RWRKS

WEATHER ROUNDUP FOR KANSAS
NATIONAL WEATHER SERVICE GOODLAND KS
1000 PM CDT TUE JUL 28 2015

NOTE:  "FAIR" INDICATES FEW OR NO CLOUDS BELOW 12,000 FEET WITH NO
SIGNIFICANT WEATHER AND/OR OBSTRUCTIONS TO VISIBILITY.

KSZ001>006-013>018-027>032-041>047-290400-
NORTHWEST KANSAS

CITY           SKY/WX    TMP DP  RH WIND       PRES   REMARKS
GOODLAND       CLEAR     63  51  65 N7        30.14R
HAYS           CLEAR     75  55  50 N12       30.01R
HILL CITY      CLEAR     68  59  73 N6        30.03R
RUSSELL        CLEAR     77  62  59 N14       29.98R
$$

KSZ061>065-074>080-084>089-290400-
SOUTHWEST KANSAS

CITY           SKY/WX    TMP DP  RH WIND       PRES   REMARKS
DODGE CITY     PTCLDY    77  62  59 NE13      30.01R
ELKHART          N/A     75  59  57 N6          N/A
GARDEN CITY    PTCLDY    74  60  61 NE13      30.04R
GREAT BEND     CLEAR     81  64  57 N14       29.96R
LIBERAL        CLOUDY    79  61  53 N9        30.03R
PRATT          CLEAR     82  70  65 N9        29.96R
$$

KSZ066>073-081>083-090>101-290400-
SOUTHEAST KANSAS

CITY           SKY/WX    TMP DP  RH WIND       PRES   REMARKS
CHANUTE        CLEAR     80  73  79 S8        29.92R
COFFEYVILLE    CLEAR     81  73  76 S3        29.92R
HUTCHINSON     MOCLDY    91  70  49 W9        29.92R HX  96
MEDICINE LODGE   N/A     88  70  55 S9G18     29.91R
NEWTON         CLEAR     88  68  51 S10       29.93R
PARSONS        CLEAR     82  73  74 S3        29.93R
WICHITA INTL   PTCLDY    88  71  57 S13       29.90R
WICHITA JABRA  CLEAR     87  71  58 S14       29.91R
WICHITA MCCONL CLEAR     87  69  55 S15       29.91R
WINFIELD       CLEAR     84  70  62 S10       29.93R
$$

KSZ007>012-019>026-033>040-048>060-102>105-290400-
NORTHEAST KANSAS

CITY           SKY/WX    TMP DP  RH WIND       PRES   REMARKS
CONCORDIA      MOCLDY    76  66  71 N8        29.97R
EMPORIA        CLEAR     85  73  67 S15       29.90R
LAWRENCE       CLEAR     86  72  62 SE8       29.89R
MANHATTAN      PTCLDY    84  77  79 N9        29.89R
MARYSVILLE     MOCLDY    77  68  73 N14G21    29.95R
OLATHE IND     CLEAR     83  72  69 S8        29.93R
OLATHE EXE     CLEAR     82  72  71 S5        29.92R
SALINA         PTCLDY    83  72  69 N17       29.93R
TOPEKA BILLARD CLEAR     88  74  63 S9        29.87R HX  96
TOPEKA FORBES  CLEAR     88  73  61 S10       29.88R HX  95
$$



USA.gov is the U.S. government's official web portal to all federal, state and local government web resources and services.